Regional Weather Roundup
Issued by NWS

Home | Current Version | Previous Version | Graphics & Text | Print | Product List | Glossary On
Versions: 1 2 3 4 5 6 7 8 9 10 11 12 13 14 15 16 17 18 19 20 21 22 23 24 25 26 27 28 29 30 31 32 33 34 35 36 37 38 39 40 41 42 43 44 45 46 47 48 49 50
000
ASUS45 KCYS 260810
RWRWY

WYOMING REGIONAL WEATHER ROUNDUP
NATIONAL WEATHER SERVICE CHEYENNE WY
200 AM MDT FRI AUG 26 2016

NOTE:  "FAIR" INDICATES FEW OR NO CLOUDS BELOW 12,000 FEET
WITH NO SIGNIFICANT WEATHER AND/OR OBSTRUCTIONS TO VISIBILITY.

WYZ001-260900-
YELLOWSTONE NATIONAL PARK

CITY           SKY/WX    TMP DP  RH WIND       PRES   REMARKS
LK YELLOWSTONE   N/A     43  37  79 CALM      30.29S
W YELLOWSTONE  NOT AVBL

$$
WYZ002>013-054>058-071-098>099-260900-
NORTHERN WYOMING

CITY           SKY/WX    TMP DP  RH WIND       PRES   REMARKS
JACKSON        FAIR      45  34  65 CALM      30.20F
CODY           FAIR      52  43  71 S3        30.18F
GREYBULL       MOCLDY    58  49  72 E3        30.13F
WORLAND        FAIR      52  48  86 CALM      30.14F
SHERIDAN       FAIR      52  45  77 CALM      30.12F
BUFFALO        FAIR      51  42  71 S7        30.16F
GILLETTE       FAIR      55  46  71 S12       30.15F
HULETT         FAIR      50  41  71 CALM      30.18F
NEWCASTLE      CLOUDY    55  45  67 SE7       30.21S

$$
WYZ014>020-022>026-101>103-260900-
CENTRAL WYOMING

CITY           SKY/WX    TMP DP  RH WIND       PRES   REMARKS
BIG PINEY      FAIR      35  33  92 NE6       30.25F WCI  30
PINEDALE       FAIR      34  32  93 NW6       30.27S WCI  29
DUBOIS         CLOUDY    41  34  75 N3        30.26S
LANDER         FAIR      49  41  74 W3        30.18F
RIVERTON       FAIR      48  47  96 N8        30.18F
CASPER         LGT RAIN  50  47  89 S7        30.21F
DOUGLAS        FAIR      51  49  92 N6        30.22F

$$
WYZ021-027>030-104>119-260900-
SOUTHERN WYOMING

CITY           SKY/WX    TMP DP  RH WIND       PRES   REMARKS
EVANSTON       FAIR      50  31  48 E10       30.22S
FORT BRIDGER   FAIR      47  34  59 N5        30.25F
ROCK SPRINGS   FAIR      50  37  61 SE9       30.23S
DIXON          FAIR      52  37  55 CALM      30.27S
RAWLINS        CLOUDY    47  37  68 N3        30.26F
SARATOGA       PTSUNNY   45  39  81 W6        30.27F
LARAMIE        CLOUDY    48  42  80 S8        30.24F
CHEYENNE       FAIR      52  46  80 S7        30.21F
TORRINGTON     FAIR      55  46  71 E12       30.15F
PINE BLUFFS    FAIR      46  43  87 CALM      30.20F

$$



USA.gov is the U.S. government's official web portal to all federal, state and local government web resources and services.